| time (UTC) | temp F | wind direction | speed MPH | gust MPH | rain 1hr in | rain 24hr in | rain mn in | humidity % | barometer mb |
| 20260906141037 | 68 | 76 | 3.0 | 6.0 | 0.00 | 0.00 | 0.00 | 95 | 1021.0 |
| 20260906140014 | 67 | 88 | 3.0 | 5.0 | 0.00 | 0.00 | 0.00 | 96 | 1021.2 |
| 20260906135005 | 66 | 86 | 2.0 | 4.0 | 0.00 | 0.00 | 0.00 | 96 | 1021.2 |
| 20260906134022 | 65 | 88 | 4.0 | 5.0 | 0.00 | 0.00 | 0.00 | 96 | 1021.2 |
| 20260906133003 | 65 | 78 | 3.0 | 5.0 | 0.00 | 0.00 | 0.00 | 96 | 1021.1 |
| 20260906132023 | 65 | 72 | 3.0 | 5.0 | 0.00 | 0.00 | 0.00 | 96 | 1020.9 |
| 20260906131018 | 64 | 79 | 2.0 | 3.0 | 0.00 | 0.00 | 0.00 | 96 | 1020.8 |
| 20260906130016 | 63 | 71 | 2.0 | 3.0 | 0.00 | 0.00 | 0.00 | 96 | 1020.7 |
| 20260906125007 | 63 | 64 | 2.0 | 3.0 | 0.00 | 0.00 | 0.00 | 96 | 1020.8 |
| 20260906124004 | 63 | 67 | 2.0 | 4.0 | 0.00 | 0.00 | 0.00 | 96 | 1020.7 |
| 20260906123024 | 62 | 39 | 2.0 | 4.0 | 0.00 | 0.00 | 0.00 | 96 | 1020.7 |
| 20260906122006 | 61 | 36 | 1.0 | 2.0 | 0.00 | 0.00 | 0.00 | 96 | 1020.7 |
| 20260906121016 | 60 | 52 | 1.0 | 2.0 | 0.00 | 0.00 | 0.00 | 96 | 1020.5 |
| 20260906120016 | 60 | 35 | 1.0 | 3.0 | 0.00 | 0.00 | 0.00 | 96 | 1020.5 |
| 20260906115004 | 60 | 350 | 1.0 | 2.0 | 0.00 | 0.00 | 0.00 | 96 | 1020.3 |
| 20260906114005 | 60 | 78 | 2.0 | 2.0 | 0.00 | 0.00 | 0.00 | 96 | 1020.1 |
| 20260906113005 | 60 | 48 | 0.0 | 2.0 | 0.00 | 0.00 | 0.00 | 96 | 1020.0 |
| 20260906112005 | 60 | 41 | 0.0 | 1.0 | 0.00 | 0.00 | 0.00 | 96 | 1019.8 |
| 20260906111036 | 60 | 0.0 | 0.0 | 0.00 | 0.00 | 0.00 | 96 | 1019.7 | |
| 20260906110014 | 60 | 48 | 1.0 | 2.0 | 0.00 | 0.00 | 0.00 | 96 | 1019.7 |
| 20260906105005 | 60 | 46 | 1.0 | 2.0 | 0.00 | 0.00 | 0.00 | 96 | 1019.7 |
| 20260906104002 | 60 | 79 | 0.0 | 2.0 | 0.00 | 0.00 | 0.00 | 96 | 1019.7 |
| 20260906103002 | 60 | 52 | 0.0 | 2.0 | 0.00 | 0.00 | 0.00 | 96 | 1019.7 |
| 20260906102023 | 60 | 33 | 0.0 | 2.0 | 0.00 | 0.00 | 0.00 | 96 | 1019.7 |
| 20260906101018 | 60 | 0.0 | 0.0 | 0.00 | 0.00 | 0.00 | 96 | 1019.7 | |
| 20260906100015 | 60 | 42 | 1.0 | 2.0 | 0.00 | 0.00 | 0.00 | 96 | 1019.8 |
| 20260906095027 | 60 | 23 | 0.0 | 1.0 | 0.00 | 0.00 | 0.00 | 96 | 1019.7 |
| 20260906094003 | 60 | 74 | 0.0 | 2.0 | 0.00 | 0.00 | 0.00 | 96 | 1019.7 |
| 20260906093003 | 59 | 72 | 2.0 | 2.0 | 0.00 | 0.00 | 0.00 | 96 | 1019.7 |
| 20260906092004 | 59 | 38 | 1.0 | 2.0 | 0.00 | 0.00 | 0.00 | 96 | 1019.6 |
| 20260906091016 | 59 | 74 | 2.0 | 2.0 | 0.00 | 0.00 | 0.00 | 96 | 1019.5 |
| 20260906090013 | 59 | 78 | 2.0 | 3.0 | 0.00 | 0.00 | 0.00 | 96 | 1019.5 |
| 20260906085024 | 59 | 79 | 2.0 | 3.0 | 0.00 | 0.00 | 0.00 | 96 | 1019.7 |
| 20260906084004 | 59 | 75 | 2.0 | 2.0 | 0.00 | 0.00 | 0.00 | 96 | 1019.6 |
| 20260906083004 | 59 | 80 | 2.0 | 3.0 | 0.00 | 0.00 | 0.00 | 96 | 1019.6 |
| 20260906082005 | 59 | 77 | 2.0 | 3.0 | 0.00 | 0.00 | 0.00 | 96 | 1019.6 |
| 20260906081005 | 59 | 73 | 2.0 | 2.0 | 0.00 | 0.00 | 0.00 | 96 | 1019.5 |
| 20260906080014 | 59 | 85 | 1.0 | 2.0 | 0.00 | 0.00 | 0.00 | 96 | 1019.5 |
| 20260906075025 | 59 | 0.0 | 0.0 | 0.00 | 0.00 | 0.00 | 96 | 1019.7 | |
| 20260906074023 | 59 | 84 | 2.0 | 3.0 | 0.00 | 0.00 | 0.00 | 96 | 1019.7 |
| 20260906073045 | 59 | 85 | 1.0 | 2.0 | 0.00 | 0.00 | 0.00 | 96 | 1019.6 |
| 20260906072023 | 59 | 82 | 2.0 | 3.0 | 0.00 | 0.00 | 0.00 | 96 | 1019.6 |
| 20260906071003 | 59 | 85 | 1.0 | 2.0 | 0.00 | 0.00 | 0.00 | 96 | 1019.6 |
| 20260906070015 | 59 | 327 | 1.0 | 2.0 | 0.00 | 0.00 | 0.00 | 96 | 1019.5 |
| 20260906065006 | 59 | 82 | 1.0 | 2.0 | 0.00 | 0.00 | 0.00 | 96 | 1019.4 |
| 20260906064003 | 59 | 46 | 1.0 | 2.0 | 0.00 | 0.00 | 0.00 | 96 | 1019.3 |
| 20260906063044 | 60 | 47 | 1.0 | 2.0 | 0.00 | 0.00 | 0.00 | 96 | 1019.3 |
| 20260906062023 | 61 | 132 | 0.0 | 2.0 | 0.00 | 0.00 | 0.00 | 96 | 1019.2 |
| 20260906061025 | 61 | 84 | 2.0 | 3.0 | 0.00 | 0.00 | 0.00 | 96 | 1019.1 |
| 20260906060016 | 61 | 76 | 2.0 | 3.0 | 0.00 | 0.00 | 0.00 | 96 | 1019.1 |
| 20260906055007 | 61 | 78 | 3.0 | 3.0 | 0.00 | 0.00 | 0.00 | 96 | 1019.2 |
| 20260906054024 | 60 | 92 | 2.0 | 2.0 | 0.00 | 0.00 | 0.00 | 96 | 1019.2 |
| 20260906053004 | 61 | 92 | 1.0 | 2.0 | 0.00 | 0.00 | 0.00 | 96 | 1019.3 |
| 20260906052004 | 61 | 0.0 | 0.0 | 0.00 | 0.00 | 0.00 | 96 | 1019.2 | |
| 20260906051044 | 61 | 62 | 1.0 | 2.0 | 0.00 | 0.00 | 0.00 | 96 | 1019.0 |
| 20260906050015 | 62 | 79 | 2.0 | 3.0 | 0.00 | 0.00 | 0.00 | 96 | 1018.8 |
| 20260906045005 | 62 | 66 | 1.0 | 2.0 | 0.00 | 0.00 | 0.00 | 96 | 1018.7 |
| 20260906044004 | 63 | 84 | 1.0 | 2.0 | 0.00 | 0.00 | 0.00 | 95 | 1018.6 |
| 20260906043006 | 64 | 74 | 2.0 | 3.0 | 0.00 | 0.00 | 0.00 | 94 | 1018.4 |
| 20260906042025 | 64 | 76 | 3.0 | 4.0 | 0.00 | 0.00 | 0.00 | 94 | 1018.5 |
| 20260906041003 | 65 | 77 | 4.0 | 4.0 | 0.00 | 0.00 | 0.00 | 93 | 1018.5 |
| 20260906040018 | 65 | 74 | 2.0 | 3.0 | 0.00 | 0.00 | 0.00 | 90 | 1018.6 |
| 20260906035009 | 66 | 79 | 3.0 | 4.0 | 0.00 | 0.00 | 0.00 | 88 | 1018.4 |
| 20260906034006 | 67 | 92 | 3.0 | 3.0 | 0.00 | 0.00 | 0.00 | 84 | 1018.4 |
| 20260906033026 | 68 | 84 | 2.0 | 3.0 | 0.00 | 0.00 | 0.00 | 83 | 1018.4 |
| 20260906032006 | 68 | 97 | 3.0 | 7.0 | 0.00 | 0.00 | 0.00 | 82 | 1018.2 |
| 20260906031026 | 69 | 93 | 3.0 | 6.0 | 0.00 | 0.00 | 0.00 | 83 | 1018.1 |
| 20260906030040 | 69 | 97 | 3.0 | 5.0 | 0.00 | 0.00 | 0.00 | 85 | 1018.1 |
| 20260906025010 | 69 | 89 | 4.0 | 6.0 | 0.00 | 0.00 | 0.00 | 89 | 1018.0 |
| 20260906024008 | 69 | 90 | 4.0 | 6.0 | 0.00 | 0.00 | 0.00 | 90 | 1018.0 |
| 20260906023007 | 69 | 90 | 3.0 | 5.0 | 0.00 | 0.00 | 0.00 | 90 | 1018.0 |
| 20260906022007 | 68 | 87 | 3.0 | 4.0 | 0.00 | 0.00 | 0.00 | 92 | 1018.0 |
| 20260906021007 | 68 | 85 | 3.0 | 4.0 | 0.00 | 0.00 | 0.00 | 96 | 1018.0 |
| 20260906020017 | 68 | 91 | 2.0 | 6.0 | 0.00 | 0.00 | 0.00 | 96 | 1017.9 |
| 20260906015027 | 68 | 84 | 2.0 | 2.0 | 0.00 | 0.00 | 0.00 | 96 | 1017.8 |
| 20260906014009 | 69 | 93 | 1.0 | 2.0 | 0.00 | 0.00 | 0.00 | 96 | 1017.7 |
| 20260906013005 | 69 | 86 | 1.0 | 2.0 | 0.00 | 0.00 | 0.00 | 95 | 1017.6 |
| 20260906012009 | 70 | 95 | 1.0 | 2.0 | 0.00 | 0.00 | 0.00 | 94 | 1017.6 |
| 20260906011045 | 71 | 0.0 | 0.0 | 0.00 | 0.00 | 0.00 | 92 | 1017.6 | |
| 20260906010017 | 71 | 91 | 2.0 | 3.0 | 0.00 | 0.00 | 0.00 | 91 | 1017.4 |
| 20260906005008 | 72 | 81 | 2.0 | 3.0 | 0.00 | 0.00 | 0.00 | 90 | 1017.5 |
| 20260906004025 | 72 | 88 | 3.0 | 3.0 | 0.00 | 0.00 | 0.00 | 88 | 1016.8 |
| 20260906003006 | 73 | 84 | 3.0 | 5.0 | 0.00 | 0.00 | 0.00 | 87 | 1017.5 |
| 20260906002007 | 73 | 93 | 3.0 | 5.0 | 0.00 | 0.00 | 0.00 | 86 | 1017.4 |
| 20260906001006 | 74 | 85 | 3.0 | 8.0 | 0.00 | 0.00 | 0.00 | 85 | 1017.4 |
| 20260906000018 | 74 | 86 | 2.0 | 6.0 | 0.00 | 0.00 | 0.00 | 85 | 1017.6 |
| 20260905235010 | 75 | 30 | 1.0 | 4.0 | 0.00 | 0.00 | 0.00 | 84 | 1017.7 |
| 20260905234007 | 76 | 326 | 1.0 | 4.0 | 0.00 | 0.00 | 0.00 | 81 | 1017.7 |
| 20260905233007 | 76 | 3 | 3.0 | 6.0 | 0.00 | 0.00 | 0.00 | 78 | 1017.6 |
| 20260905232006 | 77 | 3 | 2.0 | 6.0 | 0.00 | 0.00 | 0.00 | 79 | 1017.6 |
| 20260905231027 | 78 | 358 | 2.0 | 5.0 | 0.00 | 0.00 | 0.00 | 76 | 1017.6 |
| 20260905230016 | 77 | 29 | 1.0 | 5.0 | 0.00 | 0.00 | 0.00 | 77 | 1017.6 |
| 20260905225047 | 76 | 2 | 3.0 | 6.0 | 0.00 | 0.00 | 0.00 | 78 | 1017.5 |
| 20260905224008 | 76 | 31 | 1.0 | 5.0 | 0.00 | 0.00 | 0.00 | 79 | 1017.3 |
| 20260905223007 | 76 | 88 | 2.0 | 5.0 | 0.00 | 0.00 | 0.00 | 78 | 1017.4 |
| 20260905222004 | 77 | 49 | 2.0 | 5.0 | 0.00 | 0.00 | 0.00 | 77 | 1017.3 |
| 20260905221005 | 77 | 5 | 3.0 | 8.0 | 0.00 | 0.00 | 0.00 | 76 | 1017.2 |
| 20260905220017 | 77 | 60 | 2.0 | 6.0 | 0.00 | 0.00 | 0.00 | 77 | 1017.1 |
| 20260905215008 | 77 | 70 | 1.0 | 3.0 | 0.00 | 0.00 | 0.00 | 79 | 1017.2 |
| 20260905214006 | 76 | 5 | 2.0 | 6.0 | 0.00 | 0.00 | 0.00 | 80 | 1017.2 |
| 20260905213005 | 76 | 16 | 1.0 | 5.0 | 0.00 | 0.00 | 0.00 | 81 | 1017.3 |
| 20260905212006 | 76 | 7 | 3.0 | 7.0 | 0.00 | 0.00 | 0.00 | 81 | 1017.4 |
| 20260905211006 | 77 | 12 | 3.0 | 8.0 | 0.00 | 0.00 | 0.00 | 80 | 1017.4 |
| 20260905210018 | 77 | 356 | 3.0 | 9.0 | 0.00 | 0.00 | 0.00 | 79 | 1017.3 |
| 20260905205009 | 77 | 2 | 3.0 | 7.0 | 0.00 | 0.00 | 0.00 | 80 | 1017.4 |
| 20260905204006 | 76 | 4 | 3.0 | 7.0 | 0.00 | 0.00 | 0.00 | 83 | 1017.4 |
| 20260905203006 | 75 | 8 | 3.0 | 8.0 | 0.00 | 0.00 | 0.00 | 82 | 1017.5 |
| 20260905202007 | 75 | 2 | 2.0 | 8.0 | 0.00 | 0.00 | 0.00 | 84 | 1017.7 |
| 20260905201127 | 74 | 16 | 3.0 | 6.0 | 0.00 | 0.00 | 0.00 | 85 | 1017.6 |
| 20260905200027 | 74 | 359 | 3.0 | 7.0 | 0.00 | 0.00 | 0.00 | 86 | 1017.6 |
| 20260905195007 | 74 | 4 | 3.0 | 7.0 | 0.00 | 0.00 | 0.00 | 87 | 1017.6 |
| 20260905194007 | 73 | 9 | 2.0 | 4.0 | 0.00 | 0.00 | 0.00 | 88 | 1017.6 |
| 20260905193009 | 73 | 20 | 2.0 | 8.0 | 0.00 | 0.00 | 0.00 | 88 | 1017.6 |
| 20260905192007 | 74 | 12 | 4.0 | 7.0 | 0.00 | 0.00 | 0.00 | 87 | 1017.6 |
| 20260905191008 | 74 | 17 | 1.0 | 4.0 | 0.00 | 0.00 | 0.00 | 88 | 1017.6 |
| 20260905190008 | 73 | 13 | 2.0 | 7.0 | 0.00 | 0.00 | 0.00 | 88 | 1017.7 |
| 20260905185018 | 73 | 11 | 3.0 | 5.0 | 0.00 | 0.00 | 0.00 | 88 | 1017.7 |
| 20260905184018 | 73 | 346 | 2.0 | 6.0 | 0.00 | 0.00 | 0.00 | 88 | 1017.7 |
| 20260905183017 | 74 | 7 | 2.0 | 7.0 | 0.00 | 0.00 | 0.00 | 87 | 1017.7 |
| 20260905182018 | 75 | 356 | 2.0 | 5.0 | 0.00 | 0.00 | 0.00 | 87 | 1017.7 |
| 20260905181018 | 75 | 2 | 2.0 | 5.0 | 0.00 | 0.00 | 0.00 | 85 | 1017.8 |
| 20260905180018 | 74 | 18 | 2.0 | 4.0 | 0.00 | 0.00 | 0.00 | 86 | 1017.9 |
| 20260905175008 | 74 | 25 | 2.0 | 7.0 | 0.00 | 0.00 | 0.00 | 87 | 1017.8 |
| 20260905174007 | 74 | 30 | 2.0 | 5.0 | 0.00 | 0.00 | 0.00 | 87 | 1017.8 |
| 20260905173007 | 74 | 20 | 3.0 | 9.0 | 0.00 | 0.00 | 0.00 | 86 | 1017.7 |
| 20260905172006 | 75 | 24 | 2.0 | 7.0 | 0.00 | 0.00 | 0.00 | 86 | 1017.6 |
| 20260905171007 | 75 | 26 | 2.0 | 6.0 | 0.00 | 0.00 | 0.00 | 86 | 1017.5 |
| 20260905170027 | 75 | 13 | 3.0 | 7.0 | 0.00 | 0.00 | 0.00 | 85 | 1017.5 |
| 20260905165016 | 75 | 11 | 3.0 | 9.0 | 0.00 | 0.00 | 0.00 | 85 | 1017.6 |
| 20260905164016 | 75 | 22 | 2.0 | 7.0 | 0.00 | 0.00 | 0.00 | 86 | 1017.7 |
| 20260905163016 | 74 | 56 | 2.0 | 4.0 | 0.00 | 0.00 | 0.00 | 88 | 1017.7 |
| 20260905162016 | 74 | 65 | 2.0 | 4.0 | 0.00 | 0.00 | 0.00 | 88 | 1017.6 |
| 20260905161036 | 74 | 16 | 3.0 | 6.0 | 0.00 | 0.00 | 0.00 | 88 | 1017.6 |
| 20260905160028 | 73 | 62 | 2.0 | 3.0 | 0.00 | 0.00 | 0.00 | 89 | 1017.8 |
| 20260905155109 | 72 | 68 | 2.0 | 3.0 | 0.00 | 0.00 | 0.00 | 91 | 1017.7 |
| 20260905154029 | 72 | 50 | 2.0 | 4.0 | 0.00 | 0.00 | 0.00 | 92 | 1017.6 |
| 20260905153028 | 71 | 50 | 2.0 | 3.0 | 0.00 | 0.00 | 0.00 | 93 | 1017.6 |
| 20260905152018 | 72 | 39 | 2.0 | 5.0 | 0.00 | 0.00 | 0.00 | 93 | 1017.4 |
| 20260905151018 | 71 | 25 | 2.0 | 5.0 | 0.00 | 0.00 | 0.00 | 93 | 1017.3 |
| 20260905150017 | 71 | 52 | 3.0 | 7.0 | 0.00 | 0.00 | 0.00 | 93 | 1017.4 |
| 20260905145017 | 71 | 25 | 3.0 | 6.0 | 0.00 | 0.00 | 0.00 | 93 | 1017.4 |
| 20260905144029 | 71 | 44 | 2.0 | 3.0 | 0.00 | 0.00 | 0.00 | 93 | 1017.2 |
| 20260905143050 | 71 | 45 | 2.0 | 3.0 | 0.00 | 0.00 | 0.00 | 94 | 1017.0 |
| 20260905142050 | 71 | 58 | 2.0 | 4.0 | 0.00 | 0.00 | 0.00 | 94 | 1016.9 |